K5YNC Weather Reports


Display with metric or nautical units.
time (UTC)temp
F
wind
direction
speed
MPH
gust
MPH
rain 1hr
in
rain 24hr
in
rain mn
in
humidity
%
barometer
mb
20260506035542 55 12 4.0 7.0 0.00 0.00 0.00 78 1012.8
20260506035038 55 36 2.0 3.0 0.00 0.00 0.00 78 1012.8
20260506034536 55 21 2.0 3.0 0.00 0.00 0.00 78 1012.9
20260506034032 55 333 4.0 4.0 0.00 0.00 0.00 78 1013.1
20260506033530 55 20 3.0 4.0 0.00 0.00 0.00 78 1013.0
20260506033027 55 99 2.0 2.0 0.00 0.00 0.00 79 1013.0
20260506032524 55 341 2.0 2.0 0.00 0.00 0.00 79 1013.1
20260506032020 55 352 5.0 6.0 0.00 0.00 0.00 78 1013.1
20260506031518 55 321 2.0 2.0 0.00 0.00 0.00 79 1012.9
20260506031015 55 327 1.0 2.0 0.00 0.00 0.00 79 1012.9
20260506030513 55 341 3.0 4.0 0.00 0.00 0.00 79 1012.6
20260506030010 56 331 4.0 4.0 0.00 0.00 0.00 79 1012.5
20260506025507 56 352 3.0 4.0 0.00 0.00 0.00 79 1012.4
20260506025003 56 21 2.0 2.0 0.00 0.00 0.00 80 1012.3
20260506024500 56 343 5.0 7.0 0.00 0.00 0.00 80 1012.3
20260506023956 56 119 2.0 3.0 0.00 0.00 0.00 80 1012.3
20260506023453 56 354 2.0 2.0 0.00 0.00 0.00 80 1011.6
20260506022949 56 25 2.0 2.0 0.00 0.00 0.00 80 1011.3
20260506022447 57 106 1.0 2.0 0.00 0.00 0.00 80 1011.4
20260506021945 57 347 2.0 3.0 0.00 0.00 0.00 80 1011.1
20260506021442 57 322 3.0 4.0 0.00 0.00 0.00 80 1010.9
20260506020939 57 52 5.0 7.0 0.00 0.00 0.00 80 1011.0
20260506020437 57 173 2.0 3.0 0.00 0.00 0.00 80 1010.2
20260506015934 57 306 6.0 7.0 0.00 0.00 0.00 80 1010.2
20260506015431 58 102 4.0 6.0 0.00 0.00 0.00 80 1010.2
20260506014928 58 26 5.0 6.0 0.00 0.00 0.00 80 1010.2
20260506014425 58 5 4.0 4.0 0.00 0.00 0.00 80 1010.0
20260506013921 58 352 3.0 4.0 0.00 0.00 0.00 80 1010.2
20260506013420 59 99 4.0 7.0 0.00 0.00 0.00 79 1009.9
20260506012916 59 202 3.0 4.0 0.00 0.00 0.00 79 1010.0
20260506012412 60 351 4.0 4.0 0.00 0.00 0.00 79 1009.6
20260506011909 60 276 3.0 4.0 0.00 0.00 0.00 78 1009.8
20260506011406 60 44 4.0 7.0 0.00 0.00 0.00 78 1009.7
20260506010903 60 285 5.0 7.0 0.00 0.00 0.00 78 1009.4
20260506010402 61 289 4.0 8.0 0.00 0.00 0.00 77 1009.5
20260506005858 61 351 4.0 6.0 0.00 0.00 0.00 77 1009.4
20260506005355 61 303 2.0 2.0 0.00 0.00 0.00 77 1009.2
20260506004851 62 311 4.0 4.0 0.00 0.00 0.00 77 1009.2
20260506004349 62 316 2.0 3.0 0.00 0.00 0.00 77 1009.6
20260506003845 62 75 2.0 3.0 0.00 0.00 0.00 77 1009.5
20260506003341 62 90 3.0 4.0 0.00 0.00 0.00 76 1009.4
20260506002838 62 282 5.0 6.0 0.00 0.00 0.00 76 1009.2
20260506002334 63 268 3.0 3.0 0.00 0.00 0.00 75 1008.9
20260506001829 63 95 3.0 4.0 0.00 0.00 0.00 76 1009.3
20260506001327 63 354 3.0 3.0 0.00 0.00 0.00 75 1009.4
20260506000824 64 310 3.0 6.0 0.00 0.00 0.00 75 1009.3
20260506000323 64 332 6.0 7.0 0.00 0.00 0.00 74 1009.0
20260505235818 64 309 2.0 4.0 0.00 0.00 0.00 74 1009.1
20260505235316 64 32 4.0 4.0 0.00 0.00 0.00 74 1008.9
20260505234813 64 0 4.0 4.0 0.00 0.00 0.00 74 1008.5
20260505234310 65 20 4.0 6.0 0.00 0.00 0.00 73 1008.7
20260505233807 65 325 5.0 6.0 0.00 0.00 0.00 74 1008.8
20260505233305 65 329 2.0 2.0 0.00 0.00 0.00 74 1008.9
20260505232802 65 279 3.0 4.0 0.00 0.00 0.00 73 1009.2
20260505232259 65 265 2.0 3.0 0.00 0.00 0.00 74 1009.0
20260505231755 66 289 7.0 9.0 0.00 0.00 0.00 74 1008.7
20260505231254 66 311 4.0 6.0 0.00 0.00 0.00 73 1008.8
20260505230752 66 347 3.0 6.0 0.00 0.00 0.00 73 1008.8
20260505230249 66 41 2.0 2.0 0.00 0.00 0.00 73 1008.9
20260505225745 67 216 4.0 6.0 0.00 0.00 0.00 72 1008.8
20260505225243 67 349 4.0 4.0 0.00 0.00 0.00 72 1008.5
20260505224737 68 278 2.0 3.0 0.00 0.00 0.00 72 1008.8
20260505224235 68 313 3.0 3.0 0.00 0.00 0.00 72 1008.6
20260505223733 68 0 5.0 7.0 0.00 0.00 0.00 71 1008.6
20260505223229 68 342 4.0 4.0 0.00 0.00 0.00 71 1008.6
20260505222725 69 356 3.0 4.0 0.00 0.00 0.00 71 1008.6
20260505222221 69 322 3.0 3.0 0.00 0.00 0.00 70 1008.6
20260505221719 69 327 2.0 4.0 0.00 0.00 0.00 70 1008.6
20260505221215 69 329 3.0 4.0 0.00 0.00 0.00 70 1008.4
20260505220712 70 269 4.0 6.0 0.00 0.00 0.00 70 1008.3
20260505220210 70 339 2.0 3.0 0.00 0.00 0.00 71 1008.1
20260505215708 70 313 4.0 7.0 0.00 0.00 0.00 69 1008.0
20260505215205 70 190 2.0 2.0 0.00 0.00 0.00 70 1008.1
20260505214703 71 264 4.0 6.0 0.00 0.00 0.00 70 1008.0
20260505214200 71 3 4.0 6.0 0.00 0.00 0.00 70 1008.1
20260505213657 72 318 3.0 4.0 0.00 0.00 0.00 69 1007.7
20260505213154 73 304 3.0 3.0 0.00 0.00 0.00 67 1007.9
20260505212650 73 15 2.0 2.0 0.00 0.00 0.00 68 1007.6
20260505212148 72 303 4.0 7.0 0.00 0.00 0.00 68 1007.7
20260505211645 72 327 5.0 6.0 0.00 0.00 0.00 68 1007.8
20260505211142 72 36 2.0 3.0 0.00 0.00 0.00 69 1007.8
20260505210638 72 347 5.0 8.0 0.00 0.00 0.00 68 1008.0
20260505210135 72 48 4.0 4.0 0.00 0.00 0.00 69 1007.9
20260505205633 72 354 3.0 3.0 0.00 0.00 0.00 69 1008.1
20260505205131 73 348 4.0 7.0 0.00 0.00 0.00 68 1008.0
20260505204627 74 270 4.0 7.0 0.00 0.00 0.00 68 1008.0
20260505204125 75 330 2.0 3.0 0.00 0.00 0.00 67 1008.0
20260505203621 75 325 3.0 4.0 0.00 0.00 0.00 66 1008.0
20260505203119 76 305 5.0 7.0 0.00 0.00 0.00 65 1007.9
20260505202614 77 356 5.0 7.0 0.00 0.00 0.00 64 1007.7
20260505202111 78 300 5.0 8.0 0.00 0.00 0.00 64 1007.4
20260505201607 77 310 1.0 2.0 0.00 0.00 0.00 67 1007.7
20260505201105 77 333 4.0 7.0 0.00 0.00 0.00 64 1007.9
20260505200603 76 349 5.0 8.0 0.00 0.00 0.00 65 1007.7
20260505200059 77 164 2.0 2.0 0.00 0.00 0.00 65 1007.7
20260505195555 77 187 5.0 9.0 0.00 0.00 0.00 64 1007.6
20260505195053 78 201 1.0 2.0 0.00 0.00 0.00 64 1007.7
20260505194550 79 345 4.0 6.0 0.00 0.00 0.00 62 1007.7
20260505194046 78 356 2.0 3.0 0.00 0.00 0.00 63 1007.3
20260505193543 79 158 1.0 2.0 0.00 0.00 0.00 62 1007.2
20260505193040 80 224 1.0 1.0 0.00 0.00 0.00 59 1007.3
20260505192539 80 150 3.0 6.0 0.00 0.00 0.00 57 1007.2
20260505192036 80 330 3.0 7.0 0.00 0.00 0.00 57 1007.1
20260505191534 80 243 4.0 8.0 0.00 0.00 0.00 58 1007.2
20260505191032 80 208 4.0 6.0 0.00 0.00 0.00 57 1007.1
20260505190532 80 135 2.0 3.0 0.00 0.00 0.00 55 1007.2
20260505190028 79 242 3.0 6.0 0.00 0.00 0.00 51 1007.1
20260505185525 79 229 3.0 4.0 0.00 0.00 0.00 50 1007.2
20260505185021 79 243 2.0 2.0 0.00 0.00 0.00 50 1007.0
20260505184518 79 347 2.0 3.0 0.00 0.00 0.00 49 1007.0
20260505184015 79 155 1.0 1.0 0.00 0.00 0.00 46 1006.8
20260505183512 80 348 1.0 1.0 0.00 0.00 0.00 49 1006.6
20260505183009 79 329 2.0 3.0 0.00 0.00 0.00 48 1006.8
20260505182506 80 343 3.0 7.0 0.00 0.00 0.00 47 1006.4
20260505182002 81 192 3.0 3.0 0.00 0.00 0.00 46 1006.3
20260505181459 83 183 1.0 1.0 0.00 0.00 0.00 52 1006.1
20260505180956 84 165 4.0 8.0 0.00 0.00 0.00 52 1006.2
20260505180452 83 219 6.0 7.0 0.00 0.00 0.00 54 1006.3
20260505175949 83 222 2.0 3.0 0.00 0.00 0.00 55 1006.1
20260505175445 82 217 4.0 6.0 0.00 0.00 0.00 54 1006.2
20260505174942 83 203 3.0 4.0 0.00 0.00 0.00 55 1006.1
20260505174439 84 185 8.0 11.0 0.00 0.00 0.00 53 1006.1
20260505173935 84 233 4.0 6.0 0.00 0.00 0.00 55 1006.2
20260505173432 83 209 5.0 8.0 0.00 0.00 0.00 56 1006.0
20260505172929 83 286 8.0 13.0 0.00 0.00 0.00 55 1005.9
20260505172427 84 217 5.0 9.0 0.00 0.00 0.00 55 1005.9
20260505171926 85 104 2.0 3.0 0.00 0.00 0.00 56 1005.8
20260505171424 84 200 2.0 3.0 0.00 0.00 0.00 58 1006.0
20260505170920 82 345 2.0 4.0 0.00 0.00 0.00 60 1005.9
20260505170417 82 176 3.0 3.0 0.00 0.00 0.00 60 1006.0
20260505165912 82 195 4.0 6.0 0.00 0.00 0.00 57 1005.6
20260505165408 81 277 3.0 4.0 0.00 0.00 0.00 60 1005.5
20260505164903 81 188 6.0 8.0 0.00 0.00 0.00 63 1005.8
20260505164400 80 234 9.0 10.0 0.00 0.00 0.00 65 1005.9
20260505163859 80 200 3.0 4.0 0.00 0.00 0.00 68 1006.0
20260505163357 79 233 3.0 4.0 0.00 0.00 0.00 68 1005.7
20260505162855 79 227 4.0 6.0 0.00 0.00 0.00 67 1005.5
20260505162351 78 269 3.0 4.0 0.00 0.00 0.00 69 1005.6
20260505161848 78 172 2.0 2.0 0.00 0.00 0.00 70 1005.4
20260505161345 78 237 3.0 4.0 0.00 0.00 0.00 70 1005.4
20260505160843 78 226 10.0 13.0 0.00 0.00 0.00 69 1005.3
20260505160341 78 198 2.0 3.0 0.00 0.00 0.00 70 1005.2
20260505153320 77 209 6.0 8.0 0.00 0.00 0.00 71 1005.0
20260505152817 77 171 3.0 4.0 0.00 0.00 0.00 71 1004.8
20260505152314 76 249 6.0 8.0 0.00 0.00 0.00 72 1004.7
20260505151813 76 199 8.0 10.0 0.00 0.00 0.00 72 1004.9
20260505151311 76 166 6.0 7.0 0.00 0.00 0.00 73 1004.9
20260505150808 76 224 9.0 14.0 0.00 0.00 0.00 73 1004.9
20260505150305 76 182 3.0 4.0 0.00 0.00 0.00 73 1004.9
20260505140229 72 166 10.0 13.0 0.00 0.00 0.00 78 1004.6
20260505130153 70 229 8.0 11.0 0.00 0.00 0.00 79 1004.3
20260505124643 70 132 5.0 6.0 0.00 0.00 0.00 79 1004.2
20260505124139 70 220 8.0 9.0 0.00 0.00 0.00 80 1004.3
20260505123635 70 202 6.0 8.0 0.00 0.00 0.00 79 1004.2
20260505123132 70 202 6.0 13.0 0.00 0.00 0.00 79 1004.0
20260505122629 70 197 5.0 7.0 0.00 0.00 0.00 79 1004.0
20260505122126 70 188 5.0 6.0 0.00 0.00 0.00 79 1004.0
20260505121622 70 184 10.0 13.0 0.00 0.00 0.00 79 1004.0
20260505121119 70 310 7.0 10.0 0.00 0.00 0.00 80 1003.9
20260505120615 70 204 8.0 10.0 0.00 0.00 0.00 79 1003.9
20260505120111 70 170 7.0 9.0 0.00 0.00 0.00 79 1003.9
20260505115606 70 172 5.0 7.0 0.00 0.00 0.00 79 1003.8
20260505115104 69 182 8.0 11.0 0.00 0.00 0.00 80 1003.4
20260505114600 70 196 7.0 9.0 0.00 0.00 0.00 79 1003.6
20260505114057 70 236 7.0 9.0 0.00 0.00 0.00 79 1003.5
20260505113553 70 186 6.0 10.0 0.00 0.00 0.00 79 1003.4
20260505113050 70 205 6.0 10.0 0.00 0.00 0.00 79 1003.5
20260505112546 70 198 7.0 8.0 0.00 0.00 0.00 79 1003.4
20260505112045 70 191 8.0 10.0 0.00 0.00 0.00 79 1003.4
20260505111538 70 174 6.0 8.0 0.00 0.00 0.00 79 1003.6
20260505111035 70 296 5.0 7.0 0.00 0.00 0.00 79 1003.6
20260505110531 70 190 6.0 8.0 0.00 0.00 0.00 79 1003.4
20260505102004 71 184 7.0 11.0 0.00 0.00 0.00 78 1003.5
20260505101501 71 217 6.0 10.0 0.00 0.00 0.00 78 1003.6
20260505100958 71 213 5.0 8.0 0.00 0.00 0.00 78 1003.8
20260505100455 71 188 6.0 8.0 0.00 0.00 0.00 77 1003.6
20260505095951 71 185 9.0 13.0 0.00 0.00 0.00 77 1003.6
20260505095447 71 217 7.0 8.0 0.00 0.00 0.00 77 1003.5
20260505094944 71 157 6.0 9.0 0.00 0.00 0.00 77 1003.7
20260505094441 71 163 6.0 8.0 0.00 0.00 0.00 77 1003.6
20260505093937 71 186 4.0 4.0 0.00 0.00 0.00 76 1003.6
20260505093434 72 191 5.0 7.0 0.00 0.00 0.00 76 1003.5
20260505092931 72 145 9.0 10.0 0.00 0.00 0.00 76 1003.6
20260505092429 72 185 8.0 13.0 0.00 0.00 0.00 76 1003.6
20260505091926 72 190 6.0 8.0 0.00 0.00 0.00 76 1003.5
20260505091424 72 184 7.0 9.0 0.00 0.00 0.00 75 1003.7
20260505090921 72 177 9.0 11.0 0.00 0.00 0.00 75 1003.3
20260505090420 72 180 9.0 13.0 0.00 0.00 0.00 75 1003.7
20260505085916 72 232 4.0 6.0 0.00 0.00 0.00 75 1003.6
20260505085415 72 146 6.0 10.0 0.00 0.00 0.00 75 1003.7
20260505084912 72 187 11.0 16.0 0.00 0.00 0.00 75 1003.7
20260505084410 72 239 11.0 18.0 0.00 0.00 0.00 75 1003.9
20260505083908 72 173 9.0 14.0 0.00 0.00 0.00 75 1003.8
20260505083405 73 214 11.0 14.0 0.00 0.00 0.00 75 1003.6
20260505082901 73 201 7.0 11.0 0.00 0.00 0.00 74 1003.8
20260505082357 73 170 8.0 13.0 0.00 0.00 0.00 74 1003.9
20260505081854 73 172 10.0 15.0 0.00 0.00 0.00 74 1003.9
20260505081351 73 175 6.0 8.0 0.00 0.00 0.00 74 1003.8
20260505080848 73 190 6.0 7.0 0.00 0.00 0.00 74 1003.6
20260505080344 73 204 7.0 9.0 0.00 0.00 0.00 74 1003.9
20260505075839 73 144 6.0 8.0 0.00 0.00 0.00 74 1003.9
20260505075336 73 196 13.0 15.0 0.00 0.00 0.00 74 1003.8
20260505074834 73 190 7.0 13.0 0.00 0.00 0.00 73 1004.0
20260505074330 73 203 7.0 9.0 0.00 0.00 0.00 74 1004.4
20260505073828 73 224 8.0 11.0 0.00 0.00 0.00 73 1004.4
20260505073326 73 215 7.0 9.0 0.00 0.00 0.00 73 1004.3
20260505072822 73 221 9.0 11.0 0.00 0.00 0.00 73 1004.4
20260505072318 73 170 5.0 8.0 0.00 0.00 0.00 73 1004.5
20260505071815 73 155 11.0 15.0 0.00 0.00 0.00 73 1004.7
20260505071311 73 255 7.0 9.0 0.00 0.00 0.00 73 1004.7
20260505070810 73 148 7.0 11.0 0.00 0.00 0.00 73 1004.8
20260505070306 73 213 8.0 10.0 0.00 0.00 0.00 73 1004.8
20260505065800 73 173 6.0 13.0 0.00 0.00 0.00 73 1005.0
20260505065258 73 180 6.0 11.0 0.00 0.00 0.00 73 1004.9
20260505064755 73 133 7.0 9.0 0.00 0.00 0.00 73 1005.1
20260505064252 73 162 4.0 6.0 0.00 0.00 0.00 73 1005.2
20260505063749 73 214 7.0 11.0 0.00 0.00 0.00 73 1005.3
20260505063246 73 184 8.0 10.0 0.00 0.00 0.00 73 1005.3
20260505062743 73 202 7.0 9.0 0.00 0.00 0.00 73 1005.3
20260505062240 73 153 6.0 8.0 0.00 0.00 0.00 73 1005.2
20260505061737 73 209 7.0 9.0 0.00 0.00 0.00 73 1005.2
20260505061235 73 178 7.0 9.0 0.00 0.00 0.00 73 1005.3
20260505060732 73 181 8.0 10.0 0.00 0.00 0.00 73 1005.3
20260505060229 73 206 8.0 10.0 0.00 0.00 0.00 73 1005.3
20260505055724 73 183 10.0 16.0 0.00 0.00 0.00 73 1005.2
20260505055221 73 162 10.0 13.0 0.00 0.00 0.00 73 1005.5
20260505054718 73 123 6.0 8.0 0.00 0.00 0.00 73 1005.3
20260505054216 73 161 7.0 8.0 0.00 0.00 0.00 73 1005.4
20260505053714 73 160 10.0 14.0 0.00 0.00 0.00 73 1005.4
20260505053210 73 156 9.0 10.0 0.00 0.00 0.00 73 1005.4
20260505052708 73 169 5.0 7.0 0.00 0.00 0.00 73 1005.4
20260505052204 73 167 8.0 11.0 0.00 0.00 0.00 73 1005.6
20260505051701 73 169 11.0 14.0 0.00 0.00 0.00 73 1005.6
20260505051159 73 160 5.0 7.0 0.00 0.00 0.00 74 1005.3
20260505050657 73 199 8.0 11.0 0.00 0.00 0.00 74 1005.5
20260505050156 73 139 8.0 14.0 0.00 0.00 0.00 74 1005.4
20260505041631 72 145 9.0 10.0 0.00 0.00 0.00 74 1005.7
20260505041128 72 156 9.0 10.0 0.00 0.00 0.00 75 1005.8
20260505040625 72 170 10.0 14.0 0.00 0.00 0.00 75 1005.9
20260505040122 72 199 6.0 7.0 0.00 0.00 0.00 75 1005.9